Time,TemperatureF,DewpointF,PressureIn,WindDirection,WindDirectionDegrees,WindSpeedMPH,WindSpeedGustMPH,Humidity,HourlyPrecipIn,Conditions,Clouds,dailyrainin,SolarRadiationWatts/m^2,SoftwareType,DateUTC
2013-01-14 00:00:00,60.3,57.0,30.05,South,190,0.0,0.0,89,0.00,,SCT,0.00,0.0,WeatherDisplay:10.37,2013-01-14 05:00:00,
2013-01-14 00:05:00,60.2,56.9,30.05,South,190,0.0,0.0,89,0.00,,SCT,0.00,0.0,WeatherDisplay:10.37,2013-01-14 05:05:00,
2013-01-14 00:10:00,60.1,56.8,30.05,South,190,0.0,0.0,89,0.00,,SCT,0.00,0.0,WeatherDisplay:10.37,2013-01-14 05:10:00,
2013-01-14 00:15:00,59.9,56.6,30.04,South,190,0.0,1.0,89,0.00,,SCT,0.00,0.0,WeatherDisplay:10.37,2013-01-14 05:15:00,
2013-01-14 00:20:00,59.7,56.4,30.04,South,190,0.0,0.0,89,0.00,,SCT,0.00,0.0,WeatherDisplay:10.37,2013-01-14 05:20:00,
2013-01-14 00:25:00,59.5,56.3,30.04,South,190,0.0,0.0,89,0.00,,SCT,0.00,0.0,WeatherDisplay:10.37,2013-01-14 05:25:00,
2013-01-14 00:30:00,59.4,56.1,30.05,South,190,0.0,0.0,89,0.00,,SCT,0.00,0.0,WeatherDisplay:10.37,2013-01-14 05:30:00,
2013-01-14 00:35:00,59.1,55.9,30.06,South,190,0.0,1.0,89,0.00,,SCT,0.00,0.0,WeatherDisplay:10.37,2013-01-14 05:35:00,
2013-01-14 00:40:00,59.0,55.8,30.06,South,190,0.0,2.0,89,0.00,,SCT,0.00,0.0,WeatherDisplay:10.37,2013-01-14 05:40:00,
2013-01-14 00:45:00,59.0,55.8,30.06,South,190,1.0,3.0,89,0.00,,SCT,0.00,0.0,WeatherDisplay:10.37,2013-01-14 05:45:00,
2013-01-14 00:50:00,59.3,56.4,30.06,South,190,1.0,4.0,90,0.00,,SCT,0.00,0.0,WeatherDisplay:10.37,2013-01-14 05:50:00,
2013-01-14 00:55:00,59.6,56.7,30.06,South,190,0.0,5.0,90,0.00,,SCT,0.00,0.0,WeatherDisplay:10.37,2013-01-14 05:55:00,
2013-01-14 01:00:00,59.8,56.9,30.06,South,190,0.0,2.0,90,0.00,,SCT,0.00,0.0,WeatherDisplay:10.37,2013-01-14 06:00:00,
2013-01-14 01:10:00,60.0,57.4,30.05,South,190,0.0,0.0,91,0.00,,SCT,0.00,0.0,WeatherDisplay:10.37,2013-01-14 06:10:00,
2013-01-14 01:15:00,60.1,57.4,30.05,South,190,0.0,1.0,91,0.00,,SCT,0.00,0.0,WeatherDisplay:10.37,2013-01-14 06:15:00,
2013-01-14 01:20:00,60.1,57.5,30.06,South,190,1.0,3.0,91,0.00,,SCT,0.00,0.0,WeatherDisplay:10.37,2013-01-14 06:20:00,
2013-01-14 01:30:00,60.3,57.6,30.06,South,190,0.0,2.0,91,0.00,,SCT,0.00,0.0,WeatherDisplay:10.37,2013-01-14 06:30:00,
2013-01-14 01:35:00,60.4,57.7,30.06,South,190,0.0,2.0,91,0.00,,SCT,0.00,0.0,WeatherDisplay:10.37,2013-01-14 06:35:00,
2013-01-14 01:40:00,60.5,57.8,30.06,South,190,0.0,2.0,91,0.00,,SCT,0.00,0.0,WeatherDisplay:10.37,2013-01-14 06:40:00,
2013-01-14 01:45:00,60.6,58.0,30.06,South,190,0.0,4.0,91,0.00,,SCT,0.00,0.0,WeatherDisplay:10.37,2013-01-14 06:45:00,
2013-01-14 01:50:00,60.7,58.1,30.06,South,190,1.0,4.0,91,0.00,,SCT,0.00,0.0,WeatherDisplay:10.37,2013-01-14 06:50:00,
2013-01-14 01:55:00,60.8,58.2,30.06,South,190,1.0,3.0,91,0.00,,SCT,0.00,0.0,WeatherDisplay:10.37,2013-01-14 06:55:00,
2013-01-14 02:00:00,61.0,58.3,30.06,South,190,1.0,4.0,91,0.00,,SCT,0.00,0.0,WeatherDisplay:10.37,2013-01-14 07:00:00,
2013-01-14 02:05:00,61.1,58.5,30.06,South,190,1.0,5.0,91,0.00,,SCT,0.00,0.0,WeatherDisplay:10.37,2013-01-14 07:05:00,
2013-01-14 02:10:00,61.2,58.6,30.06,South,190,1.0,4.0,91,0.00,,SCT,0.00,0.0,WeatherDisplay:10.37,2013-01-14 07:10:00,
2013-01-14 02:15:00,61.3,58.7,30.06,South,190,2.0,4.0,91,0.00,,SCT,0.00,0.0,WeatherDisplay:10.37,2013-01-14 07:15:00,
2013-01-14 02:20:00,61.4,58.7,30.06,SSW,192,1.0,4.0,91,0.00,,SCT,0.00,0.0,WeatherDisplay:10.37,2013-01-14 07:20:00,
2013-01-14 02:25:00,61.5,58.8,30.06,SSW,193,1.0,5.0,91,0.00,,SCT,0.00,0.0,WeatherDisplay:10.37,2013-01-14 07:25:00,
2013-01-14 02:35:00,61.8,59.1,30.07,SSW,197,1.0,5.0,91,0.00,,SCT,0.00,0.0,WeatherDisplay:10.37,2013-01-14 07:35:00,
2013-01-14 02:40:00,61.9,59.2,30.07,SSW,198,1.0,4.0,91,0.00,,SCT,0.00,0.0,WeatherDisplay:10.37,2013-01-14 07:40:00,
2013-01-14 02:45:00,62.0,59.3,30.07,SSW,198,2.0,6.0,91,0.00,,SCT,0.00,0.0,WeatherDisplay:10.37,2013-01-14 07:45:00,
2013-01-14 02:55:00,62.1,59.2,30.07,SSW,200,1.0,3.0,90,0.00,,SCT,0.00,0.0,WeatherDisplay:10.37,2013-01-14 07:55:00,
2013-01-14 03:00:00,62.2,59.2,30.06,SSW,201,1.0,5.0,90,0.00,,SCT,0.00,0.0,WeatherDisplay:10.37,2013-01-14 08:00:00,
2013-01-14 03:05:00,62.3,59.3,30.06,SSW,203,2.0,6.0,90,0.00,,SCT,0.00,0.0,WeatherDisplay:10.37,2013-01-14 08:05:00,
2013-01-14 03:10:00,62.4,59.4,30.06,SSW,205,3.0,5.0,90,0.00,,SCT,0.00,0.0,WeatherDisplay:10.37,2013-01-14 08:10:00,
2013-01-14 03:15:00,62.5,59.5,30.06,SSW,206,1.0,5.0,90,0.00,,SCT,0.00,0.0,WeatherDisplay:10.37,2013-01-14 08:15:00,
2013-01-14 03:20:00,62.5,59.2,30.06,SSW,207,2.0,4.0,89,0.00,,SCT,0.00,0.0,WeatherDisplay:10.37,2013-01-14 08:20:00,
2013-01-14 03:25:00,62.6,59.3,30.06,SSW,207,0.0,3.0,89,0.00,,SCT,0.00,0.0,WeatherDisplay:10.37,2013-01-14 08:25:00,
2013-01-14 03:30:00,62.7,59.4,30.06,SSW,207,1.0,5.0,89,0.00,,SCT,0.00,0.0,WeatherDisplay:10.37,2013-01-14 08:30:00,
2013-01-14 03:35:00,62.7,59.4,30.06,SSW,207,1.0,4.0,89,0.00,,SCT,0.00,0.0,WeatherDisplay:10.37,2013-01-14 08:35:00,
2013-01-14 03:40:00,62.7,59.4,30.07,SSW,207,1.0,4.0,89,0.00,,SCT,0.00,0.0,WeatherDisplay:10.37,2013-01-14 08:40:00,
2013-01-14 03:45:00,62.7,59.4,30.07,SSW,207,1.0,4.0,89,0.00,,SCT,0.00,0.0,WeatherDisplay:10.37,2013-01-14 08:45:00,
2013-01-14 03:50:00,62.7,59.4,30.06,SSW,207,0.0,2.0,89,0.00,,SCT,0.00,0.0,WeatherDisplay:10.37,2013-01-14 08:50:00,
2013-01-14 03:55:00,62.7,59.4,30.06,SSW,207,0.0,2.0,89,0.00,,SCT,0.00,0.0,WeatherDisplay:10.37,2013-01-14 08:55:00,
2013-01-14 04:00:00,62.8,59.5,30.06,SSW,207,1.0,3.0,89,0.00,,SCT,0.00,0.0,WeatherDisplay:10.37,2013-01-14 09:00:00,
2013-01-14 04:05:00,62.8,59.5,30.06,SSW,207,1.0,4.0,89,0.00,,SCT,0.00,0.0,WeatherDisplay:10.37,2013-01-14 09:05:00,
2013-01-14 04:10:00,62.8,59.5,30.06,SSW,206,2.0,8.0,89,0.00,,SCT,0.00,0.0,WeatherDisplay:10.37,2013-01-14 09:10:00,
2013-01-14 04:15:00,62.8,59.5,30.06,SSW,208,1.0,8.0,89,0.00,,SCT,0.00,0.0,WeatherDisplay:10.37,2013-01-14 09:15:00,
2013-01-14 04:20:00,62.8,59.5,30.06,SSW,209,1.0,5.0,89,0.00,,SCT,0.00,0.0,WeatherDisplay:10.37,2013-01-14 09:20:00,
2013-01-14 04:30:00,62.7,59.4,30.05,SSW,209,1.0,4.0,89,0.00,,SCT,0.00,0.0,WeatherDisplay:10.37,2013-01-14 09:30:00,
2013-01-14 04:35:00,62.7,59.4,30.05,SSW,209,0.0,3.0,89,0.00,,SCT,0.00,0.0,WeatherDisplay:10.37,2013-01-14 09:35:00,
2013-01-14 04:40:00,62.6,59.3,30.05,SSW,209,1.0,5.0,89,0.01,RA,SCT,0.01,0.0,WeatherDisplay:10.37,2013-01-14 09:40:00,
2013-01-14 04:45:00,62.6,59.3,30.05,SSW,209,1.0,5.0,89,0.01,RA,SCT,0.02,0.0,WeatherDisplay:10.37,2013-01-14 09:45:00,
2013-01-14 04:50:00,62.5,59.2,30.04,SSW,211,1.0,5.0,89,0.00,RA,SCT,0.02,0.0,WeatherDisplay:10.37,2013-01-14 09:50:00,
2013-01-14 04:55:00,62.5,59.5,30.04,SSW,212,0.0,4.0,90,0.00,,SCT,0.02,0.0,WeatherDisplay:10.37,2013-01-14 09:55:00,
2013-01-14 05:00:00,62.4,59.4,30.04,SSW,211,0.0,4.0,90,0.00,,SCT,0.02,0.0,WeatherDisplay:10.37,2013-01-14 10:00:00,
2013-01-14 05:05:00,62.3,59.4,30.04,SSW,210,1.0,5.0,90,0.00,,SCT,0.02,0.0,WeatherDisplay:10.37,2013-01-14 10:05:00,
2013-01-14 05:10:00,62.3,59.3,30.04,SSW,209,0.0,2.0,90,0.00,,SCT,0.02,0.0,WeatherDisplay:10.37,2013-01-14 10:10:00,
2013-01-14 05:15:00,62.3,59.3,30.04,SSW,209,0.0,2.0,90,0.00,,SCT,0.02,0.0,WeatherDisplay:10.37,2013-01-14 10:15:00,
2013-01-14 05:20:00,62.2,59.2,30.04,SSW,209,0.0,3.0,90,0.00,,SCT,0.02,0.0,WeatherDisplay:10.37,2013-01-14 10:20:00,
2013-01-14 05:25:00,62.1,59.1,30.04,SSW,209,1.0,4.0,90,0.00,,SCT,0.02,0.0,WeatherDisplay:10.37,2013-01-14 10:25:00,
2013-01-14 05:30:00,62.1,59.1,30.03,SSW,209,1.0,3.0,90,0.00,,SCT,0.02,0.0,WeatherDisplay:10.37,2013-01-14 10:30:00,
2013-01-14 05:40:00,61.9,58.9,30.03,SSW,209,0.0,3.0,90,0.00,,SCT,0.02,0.0,WeatherDisplay:10.37,2013-01-14 10:40:00,
2013-01-14 05:45:00,61.9,59.2,30.03,SSW,209,1.0,3.0,91,0.01,RA,SCT,0.03,0.0,WeatherDisplay:10.37,2013-01-14 10:45:00,
2013-01-14 05:50:00,61.8,59.1,30.04,SSW,209,1.0,3.0,91,0.00,RA,SCT,0.03,0.0,WeatherDisplay:10.37,2013-01-14 10:50:00,
2013-01-14 05:55:00,61.7,59.1,30.04,SSW,209,1.0,4.0,91,0.00,,SCT,0.03,0.0,WeatherDisplay:10.37,2013-01-14 10:55:00,
2013-01-14 06:00:00,61.7,59.0,30.04,SSW,209,0.0,3.0,91,0.00,,SCT,0.03,0.0,WeatherDisplay:10.37,2013-01-14 11:00:00,
2013-01-14 06:05:00,61.7,59.0,30.04,SSW,209,0.0,3.0,91,0.00,,SCT,0.03,0.0,WeatherDisplay:10.37,2013-01-14 11:05:00,
2013-01-14 06:10:00,61.6,58.9,30.04,SSW,202,2.0,7.0,91,0.00,,SCT,0.03,0.0,WeatherDisplay:10.37,2013-01-14 11:10:00,
2013-01-14 06:15:00,61.6,58.9,30.04,South,178,1.0,4.0,91,0.01,RA,SCT,0.04,0.0,WeatherDisplay:10.37,2013-01-14 11:15:00,
2013-01-14 06:20:00,61.6,58.9,30.04,South,169,2.0,5.0,91,0.00,RA,SCT,0.04,0.0,WeatherDisplay:10.37,2013-01-14 11:20:00,
2013-01-14 06:25:00,61.6,58.9,30.04,South,169,2.0,5.0,91,0.00,,SCT,0.04,0.0,WeatherDisplay:10.37,2013-01-14 11:25:00,
2013-01-14 06:30:00,61.6,58.9,30.04,South,169,1.0,4.0,91,0.00,,SCT,0.04,0.0,WeatherDisplay:10.37,2013-01-14 11:30:00,
2013-01-14 06:35:00,61.5,58.9,30.05,South,169,1.0,4.0,91,0.00,,SCT,0.04,0.0,WeatherDisplay:10.37,2013-01-14 11:35:00,
2013-01-14 06:40:00,61.5,58.8,30.05,South,169,1.0,4.0,91,0.00,,SCT,0.04,0.0,WeatherDisplay:10.37,2013-01-14 11:40:00,
2013-01-14 06:45:00,61.5,58.8,30.05,South,170,2.0,5.0,91,0.00,,SCT,0.04,0.0,WeatherDisplay:10.37,2013-01-14 11:45:00,
2013-01-14 06:50:00,61.5,58.8,30.05,South,171,1.0,4.0,91,0.00,,SCT,0.04,0.0,WeatherDisplay:10.37,2013-01-14 11:50:00,
2013-01-14 06:55:00,61.5,59.2,30.05,South,174,2.0,5.0,92,0.00,,SCT,0.04,0.0,WeatherDisplay:10.37,2013-01-14 11:55:00,
2013-01-14 07:00:00,61.4,59.1,30.06,South,183,1.0,5.0,92,0.00,,SCT,0.04,0.0,WeatherDisplay:10.37,2013-01-14 12:00:00,
2013-01-14 07:05:00,61.4,59.1,30.05,South,188,1.0,3.0,92,0.01,RA,SCT,0.05,0.0,WeatherDisplay:10.37,2013-01-14 12:05:00,
2013-01-14 07:10:00,61.4,59.1,30.05,South,182,2.0,5.0,92,0.01,RA,SCT,0.06,0.0,WeatherDisplay:10.37,2013-01-14 12:10:00,
2013-01-14 07:15:00,61.4,59.1,30.06,South,179,1.0,3.0,92,0.00,RA,SCT,0.06,0.0,WeatherDisplay:10.37,2013-01-14 12:15:00,
2013-01-14 07:20:00,61.4,59.1,30.06,South,179,2.0,4.0,92,0.00,,SCT,0.06,0.0,WeatherDisplay:10.37,2013-01-14 12:20:00,
2013-01-14 07:25:00,61.4,59.1,30.06,South,180,1.0,4.0,92,0.00,,SCT,0.06,0.0,WeatherDisplay:10.37,2013-01-14 12:25:00,
2013-01-14 07:30:00,61.4,59.0,30.06,South,180,1.0,6.0,92,0.00,,SCT,0.06,0.0,WeatherDisplay:10.37,2013-01-14 12:30:00,
2013-01-14 07:35:00,61.3,59.0,30.06,South,180,0.0,3.0,92,0.00,,SCT,0.06,0.0,WeatherDisplay:10.37,2013-01-14 12:35:00,
2013-01-14 07:40:00,61.3,59.0,30.06,South,180,1.0,4.0,92,0.00,,SCT,0.06,0.0,WeatherDisplay:10.37,2013-01-14 12:40:00,
2013-01-14 07:45:00,61.3,59.0,30.07,South,183,2.0,5.0,92,0.00,,SCT,0.06,0.0,WeatherDisplay:10.37,2013-01-14 12:45:00,
2013-01-14 07:50:00,61.3,59.0,30.07,South,184,1.0,3.0,92,0.00,,SCT,0.06,0.0,WeatherDisplay:10.37,2013-01-14 12:50:00,
2013-01-14 07:55:00,61.2,58.9,30.07,South,185,0.0,4.0,92,0.00,,SCT,0.06,0.0,WeatherDisplay:10.37,2013-01-14 12:55:00,
2013-01-14 08:00:00,61.2,58.9,30.07,South,184,1.0,5.0,92,0.00,,SCT,0.06,9.0,WeatherDisplay:10.37,2013-01-14 13:00:00,
2013-01-14 08:05:00,61.2,58.9,30.07,South,182,2.0,4.0,92,0.00,,SCT,0.06,0.0,WeatherDisplay:10.37,2013-01-14 13:05:00,
2013-01-14 08:15:00,61.1,58.8,30.07,South,179,1.0,3.0,92,0.06,RA,SCT,0.12,12.0,WeatherDisplay:10.37,2013-01-14 13:15:00,
2013-01-14 08:20:00,61.1,58.8,30.07,South,179,2.0,6.0,92,0.00,RA,SCT,0.12,18.0,WeatherDisplay:10.37,2013-01-14 13:20:00,
2013-01-14 08:30:00,61.1,58.8,30.07,South,176,1.0,6.0,92,0.00,,SCT,0.12,28.0,WeatherDisplay:10.37,2013-01-14 13:30:00,
2013-01-14 08:35:00,61.1,58.8,30.07,South,174,2.0,5.0,92,0.00,,SCT,0.12,60.0,WeatherDisplay:10.37,2013-01-14 13:35:00,
2013-01-14 08:40:00,61.1,58.8,30.08,South,174,2.0,4.0,92,0.00,,SCT,0.12,44.0,WeatherDisplay:10.37,2013-01-14 13:40:00,
2013-01-14 08:45:00,61.2,58.9,30.08,South,174,1.0,4.0,92,0.00,BKN,SCT,0.12,33.0,WeatherDisplay:10.37,2013-01-14 13:45:00,
2013-01-14 08:50:00,61.2,58.9,30.08,South,175,2.0,5.0,92,0.00,CLR,SCT,0.12,33.0,WeatherDisplay:10.37,2013-01-14 13:50:00,
2013-01-14 08:55:00,61.2,58.9,30.08,South,176,1.0,5.0,92,0.00,CLR,SCT,0.12,30.0,WeatherDisplay:10.37,2013-01-14 13:55:00,
2013-01-14 09:00:00,61.2,58.9,30.09,South,188,1.0,6.0,92,0.00,CLR,SCT,0.12,25.0,WeatherDisplay:10.37,2013-01-14 14:00:00,
2013-01-14 09:05:00,61.2,58.9,30.09,SSW,204,1.0,7.0,92,0.00,FEW,SCT,0.12,37.0,WeatherDisplay:10.37,2013-01-14 14:05:00,
2013-01-14 09:10:00,61.2,58.9,30.09,SSW,210,1.0,4.0,92,0.01,RA,SCT,0.13,39.0,WeatherDisplay:10.37,2013-01-14 14:10:00,
2013-01-14 09:15:00,61.3,59.0,30.09,SSW,210,2.0,5.0,92,0.00,RA,SCT,0.13,33.0,WeatherDisplay:10.37,2013-01-14 14:15:00,
2013-01-14 09:20:00,61.3,59.0,30.08,SSW,207,1.0,6.0,92,0.00,SCT,SCT,0.13,23.0,WeatherDisplay:10.37,2013-01-14 14:20:00,
2013-01-14 09:25:00,61.3,59.0,30.08,South,184,1.0,6.0,92,0.00,BKN,SCT,0.13,26.0,WeatherDisplay:10.37,2013-01-14 14:25:00,
2013-01-14 09:30:00,61.3,59.0,30.08,South,178,2.0,6.0,92,0.01,RA,SCT,0.14,26.0,WeatherDisplay:10.37,2013-01-14 14:30:00,
2013-01-14 09:35:00,61.3,59.0,30.08,South,182,2.0,5.0,92,0.00,RA,SCT,0.14,35.0,WeatherDisplay:10.37,2013-01-14 14:35:00,
2013-01-14 09:40:00,61.3,59.0,30.08,SSW,198,2.0,7.0,92,0.00,BKN,SCT,0.14,35.0,WeatherDisplay:10.37,2013-01-14 14:40:00,
2013-01-14 09:45:00,61.3,59.0,30.08,SSW,204,1.0,6.0,92,0.00,BKN,SCT,0.14,40.0,WeatherDisplay:10.37,2013-01-14 14:45:00,
2013-01-14 09:50:00,61.3,59.0,30.08,South,183,0.0,7.0,92,0.00,BKN,SCT,0.14,37.0,WeatherDisplay:10.37,2013-01-14 14:50:00,
2013-01-14 09:55:00,61.4,59.0,30.08,South,181,3.0,7.0,92,0.00,BKN,SCT,0.14,37.0,WeatherDisplay:10.37,2013-01-14 14:55:00,
2013-01-14 10:00:00,61.4,59.1,30.09,SSW,208,3.0,6.0,92,0.00,BKN,SCT,0.14,39.0,WeatherDisplay:10.37,2013-01-14 15:00:00,
2013-01-14 10:05:00,61.4,59.1,30.09,SW,233,0.0,3.0,92,0.00,BKN,SCT,0.14,40.0,WeatherDisplay:10.37,2013-01-14 15:05:00,
2013-01-14 10:10:00,61.4,59.1,30.09,NW,318,0.0,5.0,92,0.00,BKN,SCT,0.14,46.0,WeatherDisplay:10.37,2013-01-14 15:10:00,
2013-01-14 10:15:00,61.5,59.1,30.09,WNW,286,1.0,4.0,92,0.00,OVC,SCT,0.14,32.0,WeatherDisplay:10.37,2013-01-14 15:15:00,
2013-01-14 10:20:00,61.5,59.2,30.09,WSW,247,3.0,5.0,92,0.00,OVC,SCT,0.14,35.0,WeatherDisplay:10.37,2013-01-14 15:20:00,
2013-01-14 10:25:00,61.5,59.2,30.09,SW,220,2.0,5.0,92,0.00,OVC,SCT,0.14,44.0,WeatherDisplay:10.37,2013-01-14 15:25:00,
2013-01-14 10:30:00,61.5,59.2,30.09,SSW,199,1.0,6.0,92,0.00,OVC,SCT,0.14,39.0,WeatherDisplay:10.37,2013-01-14 15:30:00,
2013-01-14 10:35:00,61.5,59.2,30.09,SSW,203,1.0,4.0,92,0.00,OVC,SCT,0.14,46.0,WeatherDisplay:10.37,2013-01-14 15:35:00,
2013-01-14 10:40:00,61.5,59.2,30.09,SSW,206,3.0,5.0,92,0.00,OVC,SCT,0.14,40.0,WeatherDisplay:10.37,2013-01-14 15:40:00,
2013-01-14 10:45:00,61.6,59.3,30.09,SSW,205,2.0,7.0,92,0.00,OVC,SCT,0.14,37.0,WeatherDisplay:10.37,2013-01-14 15:45:00,
2013-01-14 10:50:00,61.6,59.3,30.09,SSW,207,1.0,4.0,92,0.00,OVC,SCT,0.14,30.0,WeatherDisplay:10.37,2013-01-14 15:50:00,
2013-01-14 10:55:00,61.6,59.3,30.09,SSW,208,3.0,6.0,92,0.00,OVC,SCT,0.14,30.0,WeatherDisplay:10.37,2013-01-14 15:55:00,
2013-01-14 11:00:00,61.6,59.3,30.09,SSW,210,2.0,5.0,92,0.00,OVC,SCT,0.14,21.0,WeatherDisplay:10.37,2013-01-14 16:00:00,
2013-01-14 11:05:00,61.6,59.3,30.09,SSW,211,1.0,4.0,92,0.00,OVC,SCT,0.14,21.0,WeatherDisplay:10.37,2013-01-14 16:05:00,
2013-01-14 11:10:00,61.6,59.3,30.08,SSW,212,0.0,3.0,92,0.02,RA,SCT,0.16,25.0,WeatherDisplay:10.37,2013-01-14 16:10:00,
2013-01-14 11:15:00,61.7,59.3,30.08,SSW,213,0.0,2.0,92,0.00,RA,SCT,0.16,42.0,WeatherDisplay:10.37,2013-01-14 16:15:00,
2013-01-14 11:20:00,61.7,59.4,30.08,SSW,212,1.0,4.0,92,0.02,RA,SCT,0.18,60.0,WeatherDisplay:10.37,2013-01-14 16:20:00,
2013-01-14 11:25:00,61.7,59.4,30.08,SSW,212,1.0,3.0,92,0.00,RA,SCT,0.18,72.0,WeatherDisplay:10.37,2013-01-14 16:25:00,
2013-01-14 11:30:00,61.8,59.5,30.08,SSW,212,0.0,4.0,92,0.01,RA,SCT,0.19,86.0,WeatherDisplay:10.37,2013-01-14 16:30:00,
2013-01-14 11:35:00,61.9,59.5,30.08,SSW,212,1.0,3.0,92,0.00,RA,SCT,0.19,74.0,WeatherDisplay:10.37,2013-01-14 16:35:00,
2013-01-14 11:40:00,62.0,59.6,30.07,SSW,212,1.0,3.0,92,0.01,RA,SCT,0.20,79.0,WeatherDisplay:10.37,2013-01-14 16:40:00,
2013-01-14 11:45:00,62.0,59.6,30.07,SSW,212,1.0,3.0,92,0.00,RA,SCT,0.20,76.0,WeatherDisplay:10.37,2013-01-14 16:45:00,
2013-01-14 11:50:00,62.1,59.7,30.07,SSW,212,1.0,4.0,92,0.00,OVC,SCT,0.20,65.0,WeatherDisplay:10.37,2013-01-14 16:50:00,
2013-01-14 11:55:00,62.2,59.8,30.07,SSW,212,1.0,3.0,92,0.01,RA,SCT,0.21,65.0,WeatherDisplay:10.37,2013-01-14 16:55:00,
2013-01-14 12:00:00,62.3,60.2,30.06,SSW,212,2.0,4.0,93,0.01,RA,SCT,0.22,77.0,WeatherDisplay:10.37,2013-01-14 17:00:00,
2013-01-14 12:05:00,62.4,60.3,30.06,SSW,212,0.0,3.0,93,0.00,RA,SCT,0.22,58.0,WeatherDisplay:10.37,2013-01-14 17:05:00,
2013-01-14 12:10:00,62.5,60.4,30.06,SSW,212,1.0,3.0,93,0.00,OVC,SCT,0.22,60.0,WeatherDisplay:10.37,2013-01-14 17:10:00,
2013-01-14 12:15:00,62.5,60.4,30.06,SSW,212,0.0,2.0,93,0.00,OVC,SCT,0.22,86.0,WeatherDisplay:10.37,2013-01-14 17:15:00,
2013-01-14 12:20:00,62.6,60.2,30.06,SSW,212,1.0,3.0,92,0.01,RA,SCT,0.23,84.0,WeatherDisplay:10.37,2013-01-14 17:20:00,
2013-01-14 12:25:00,62.6,60.2,30.06,SSW,212,1.0,3.0,92,0.01,RA,SCT,0.24,100.0,WeatherDisplay:10.37,2013-01-14 17:25:00,
2013-01-14 12:30:00,62.7,60.3,30.05,SSW,212,0.0,2.0,92,0.00,RA,SCT,0.24,97.0,WeatherDisplay:10.37,2013-01-14 17:30:00,
2013-01-14 12:40:00,62.9,60.8,30.05,SSW,212,0.0,3.0,93,0.00,BKN,SCT,0.24,167.0,WeatherDisplay:10.37,2013-01-14 17:40:00,
2013-01-14 12:45:00,63.1,61.0,30.05,SSW,212,1.0,3.0,93,0.01,RA,SCT,0.25,151.0,WeatherDisplay:10.37,2013-01-14 17:45:00,
2013-01-14 12:55:00,63.4,61.3,30.04,SW,225,0.0,3.0,93,0.00,BKN,SCT,0.25,118.0,WeatherDisplay:10.37,2013-01-14 17:55:00,
2013-01-14 13:00:00,63.5,61.4,30.04,WNW,291,0.0,3.0,93,0.00,OVC,SCT,0.25,76.0,WeatherDisplay:10.37,2013-01-14 18:00:00,
2013-01-14 13:05:00,63.6,61.5,30.04,NNW,346,1.0,3.0,93,0.00,OVC,SCT,0.25,60.0,WeatherDisplay:10.37,2013-01-14 18:05:00,
2013-01-14 13:15:00,63.6,61.6,30.03,West,261,2.0,3.0,93,0.00,OVC,SCT,0.25,79.0,WeatherDisplay:10.37,2013-01-14 18:15:00,
2013-01-14 13:20:00,63.7,61.6,30.04,WSW,258,0.0,3.0,93,0.00,OVC,SCT,0.25,81.0,WeatherDisplay:10.37,2013-01-14 18:20:00,
2013-01-14 13:25:00,63.7,61.6,30.04,WSW,257,0.0,2.0,93,0.00,OVC,SCT,0.25,46.0,WeatherDisplay:10.37,2013-01-14 18:25:00,
2013-01-14 13:30:00,63.8,61.7,30.04,WSW,257,0.0,2.0,93,0.00,OVC,SCT,0.25,60.0,WeatherDisplay:10.37,2013-01-14 18:30:00,
2013-01-14 13:35:00,63.8,61.7,30.04,WSW,257,1.0,3.0,93,0.00,OVC,SCT,0.25,60.0,WeatherDisplay:10.37,2013-01-14 18:35:00,
2013-01-14 13:40:00,63.8,61.7,30.04,WSW,257,1.0,3.0,93,0.00,OVC,SCT,0.25,63.0,WeatherDisplay:10.37,2013-01-14 18:40:00,
2013-01-14 13:45:00,63.9,61.8,30.03,WSW,254,0.0,4.0,93,0.00,OVC,SCT,0.25,62.0,WeatherDisplay:10.37,2013-01-14 18:45:00,
2013-01-14 13:50:00,63.9,61.8,30.04,WSW,253,0.0,3.0,93,0.00,OVC,SCT,0.25,74.0,WeatherDisplay:10.37,2013-01-14 18:50:00,
2013-01-14 13:55:00,63.9,61.8,30.03,WSW,253,0.0,2.0,93,0.00,OVC,SCT,0.25,72.0,WeatherDisplay:10.37,2013-01-14 18:55:00,
2013-01-14 14:00:00,64.0,61.9,30.03,WSW,253,1.0,2.0,93,0.00,OVC,SCT,0.25,88.0,WeatherDisplay:10.37,2013-01-14 19:00:00,
2013-01-14 14:05:00,64.0,61.9,30.04,WSW,253,1.0,2.0,93,0.00,OVC,SCT,0.25,51.0,WeatherDisplay:10.37,2013-01-14 19:05:00,
2013-01-14 14:10:00,64.1,62.0,30.03,WSW,253,1.0,2.0,93,0.00,OVC,SCT,0.25,77.0,WeatherDisplay:10.37,2013-01-14 19:10:00,
2013-01-14 14:15:00,64.1,62.0,30.04,WSW,253,1.0,3.0,93,0.00,OVC,SCT,0.25,60.0,WeatherDisplay:10.37,2013-01-14 19:15:00,
2013-01-14 14:20:00,64.1,62.0,30.04,WSW,253,0.0,3.0,93,0.00,OVC,SCT,0.25,46.0,WeatherDisplay:10.37,2013-01-14 19:20:00,
2013-01-14 14:25:00,64.2,62.1,30.04,WSW,253,1.0,2.0,93,0.00,OVC,SCT,0.25,32.0,WeatherDisplay:10.37,2013-01-14 19:25:00,
2013-01-14 14:30:00,64.2,62.1,30.04,WSW,253,1.0,3.0,93,0.00,OVC,SCT,0.25,28.0,WeatherDisplay:10.37,2013-01-14 19:30:00,
2013-01-14 14:35:00,64.1,62.0,30.04,WSW,253,1.0,4.0,93,0.00,OVC,SCT,0.25,40.0,WeatherDisplay:10.37,2013-01-14 19:35:00,
2013-01-14 14:40:00,64.1,62.0,30.04,WSW,253,0.0,2.0,93,0.00,OVC,SCT,0.25,30.0,WeatherDisplay:10.37,2013-01-14 19:40:00,
2013-01-14 14:45:00,64.1,62.0,30.05,WSW,253,0.0,1.0,93,0.00,OVC,SCT,0.25,25.0,WeatherDisplay:10.37,2013-01-14 19:45:00,
2013-01-14 14:50:00,64.1,62.0,30.05,WSW,253,0.0,2.0,93,0.00,OVC,SCT,0.25,21.0,WeatherDisplay:10.37,2013-01-14 19:50:00,
2013-01-14 14:55:00,64.1,62.0,30.05,WSW,253,1.0,3.0,93,0.00,OVC,SCT,0.25,19.0,WeatherDisplay:10.37,2013-01-14 19:55:00,
2013-01-14 15:00:00,64.1,62.0,30.05,WSW,253,1.0,3.0,93,0.00,OVC,SCT,0.25,32.0,WeatherDisplay:10.37,2013-01-14 20:00:00,
2013-01-14 15:05:00,64.1,62.0,30.05,WSW,253,0.0,3.0,93,0.00,OVC,SCT,0.25,32.0,WeatherDisplay:10.37,2013-01-14 20:05:00,
2013-01-14 15:10:00,64.1,62.0,30.05,WSW,253,1.0,3.0,93,0.01,RA,SCT,0.26,21.0,WeatherDisplay:10.37,2013-01-14 20:10:00,
2013-01-14 15:15:00,64.0,62.0,30.05,WSW,253,0.0,1.0,93,0.00,RA,SCT,0.26,30.0,WeatherDisplay:10.37,2013-01-14 20:15:00,
2013-01-14 15:20:00,64.0,61.9,30.05,WSW,253,0.0,1.0,93,0.00,OVC,SCT,0.26,26.0,WeatherDisplay:10.37,2013-01-14 20:20:00,
2013-01-14 15:25:00,64.0,61.6,30.05,WSW,253,0.0,2.0,92,0.00,OVC,SCT,0.26,30.0,WeatherDisplay:10.37,2013-01-14 20:25:00,
2013-01-14 15:30:00,64.0,61.6,30.05,WSW,253,0.0,2.0,92,0.01,RA,SCT,0.27,21.0,WeatherDisplay:10.37,2013-01-14 20:30:00,
2013-01-14 15:35:00,64.0,61.6,30.06,WSW,253,1.0,3.0,92,0.00,RA,SCT,0.27,19.0,WeatherDisplay:10.37,2013-01-14 20:35:00,
2013-01-14 15:40:00,64.0,61.6,30.06,WSW,253,2.0,4.0,92,0.00,OVC,SCT,0.27,18.0,WeatherDisplay:10.37,2013-01-14 20:40:00,
2013-01-14 15:45:00,64.0,61.6,30.06,WSW,253,1.0,2.0,92,0.00,OVC,SCT,0.27,19.0,WeatherDisplay:10.37,2013-01-14 20:45:00,
2013-01-14 15:50:00,63.9,61.5,30.06,WSW,251,0.0,4.0,92,0.01,RA,SCT,0.28,16.0,WeatherDisplay:10.37,2013-01-14 20:50:00,
2013-01-14 15:55:00,63.9,61.5,30.06,WSW,250,1.0,4.0,92,0.00,RA,SCT,0.28,9.0,WeatherDisplay:10.37,2013-01-14 20:55:00,
2013-01-14 16:00:00,63.9,61.5,30.06,WSW,250,1.0,3.0,92,0.00,,SCT,0.28,18.0,WeatherDisplay:10.37,2013-01-14 21:00:00,
2013-01-14 16:05:00,63.9,61.5,30.06,WSW,248,1.0,4.0,92,0.00,,SCT,0.28,14.0,WeatherDisplay:10.37,2013-01-14 21:05:00,
2013-01-14 16:10:00,63.9,61.5,30.07,WSW,244,2.0,4.0,92,0.00,,SCT,0.28,16.0,WeatherDisplay:10.37,2013-01-14 21:10:00,
2013-01-14 16:15:00,63.9,61.5,30.07,SW,233,1.0,5.0,92,0.00,,SCT,0.28,12.0,WeatherDisplay:10.37,2013-01-14 21:15:00,
2013-01-14 16:20:00,63.8,61.4,30.07,SW,227,1.0,4.0,92,0.00,,SCT,0.28,11.0,WeatherDisplay:10.37,2013-01-14 21:20:00,
2013-01-14 16:25:00,63.8,61.7,30.07,SW,224,3.0,5.0,93,0.00,,SCT,0.28,11.0,WeatherDisplay:10.37,2013-01-14 21:25:00,
2013-01-14 16:30:00,63.8,61.7,30.07,SW,221,2.0,4.0,93,0.00,,SCT,0.28,7.0,WeatherDisplay:10.37,2013-01-14 21:30:00,
2013-01-14 16:35:00,63.8,61.7,30.07,SW,218,1.0,4.0,93,0.00,,SCT,0.28,7.0,WeatherDisplay:10.37,2013-01-14 21:35:00,
2013-01-14 16:40:00,63.7,61.6,30.07,SW,216,2.0,4.0,93,0.00,,SCT,0.28,7.0,WeatherDisplay:10.37,2013-01-14 21:40:00,
2013-01-14 16:45:00,63.7,61.6,30.07,SW,214,1.0,4.0,93,0.00,,SCT,0.28,5.0,WeatherDisplay:10.37,2013-01-14 21:45:00,
2013-01-14 16:50:00,63.7,61.6,30.07,SSW,213,1.0,4.0,93,0.01,RA,SCT,0.29,5.0,WeatherDisplay:10.37,2013-01-14 21:50:00,
2013-01-14 16:55:00,63.7,61.6,30.07,SSW,208,2.0,5.0,93,0.00,RA,SCT,0.29,5.0,WeatherDisplay:10.37,2013-01-14 21:55:00,
2013-01-14 17:00:00,63.6,61.6,30.08,SSW,203,0.0,4.0,93,0.00,,SCT,0.29,0.0,WeatherDisplay:10.37,2013-01-14 22:00:00,
2013-01-14 17:05:00,63.6,61.5,30.07,SSW,201,0.0,2.0,93,0.00,CLR,SCT,0.29,0.0,WeatherDisplay:10.37,2013-01-14 22:05:00,
2013-01-14 17:15:00,63.6,61.5,30.07,SSW,201,0.0,2.0,93,0.00,CLR,SCT,0.29,0.0,WeatherDisplay:10.37,2013-01-14 22:15:00,
2013-01-14 17:20:00,63.6,61.5,30.07,SSW,201,1.0,3.0,93,0.00,CLR,SCT,0.29,0.0,WeatherDisplay:10.37,2013-01-14 22:20:00,
2013-01-14 17:25:00,63.5,61.4,30.07,SSW,201,0.0,2.0,93,0.00,CLR,SCT,0.29,0.0,WeatherDisplay:10.37,2013-01-14 22:25:00,
2013-01-14 17:30:00,63.5,61.4,30.07,SSW,201,0.0,1.0,93,0.00,CLR,SCT,0.29,0.0,WeatherDisplay:10.37,2013-01-14 22:30:00,
2013-01-14 17:40:00,63.5,61.4,30.08,SSW,201,0.0,1.0,93,0.00,CLR,SCT,0.29,0.0,WeatherDisplay:10.37,2013-01-14 22:40:00,
2013-01-14 17:45:00,63.5,61.4,30.08,SSW,201,1.0,2.0,93,0.00,CLR,SCT,0.29,0.0,WeatherDisplay:10.37,2013-01-14 22:45:00,
2013-01-14 17:50:00,63.4,61.4,30.08,SSW,201,1.0,3.0,93,0.00,CLR,SCT,0.29,0.0,WeatherDisplay:10.37,2013-01-14 22:50:00,
2013-01-14 18:00:00,63.4,61.0,30.08,SSW,202,0.0,2.0,92,0.00,RA,SCT,0.30,0.0,WeatherDisplay:10.37,2013-01-14 23:00:00,
2013-01-14 18:05:00,63.4,61.0,30.08,SSW,201,0.0,2.0,92,0.00,,SCT,0.30,0.0,WeatherDisplay:10.37,2013-01-14 23:05:00,
2013-01-14 18:10:00,63.4,61.3,30.08,SSW,201,0.0,1.0,93,0.00,,SCT,0.30,0.0,WeatherDisplay:10.37,2013-01-14 23:10:00,
2013-01-14 18:15:00,63.4,61.3,30.08,SSW,201,0.0,2.0,93,0.01,RA,SCT,0.31,0.0,WeatherDisplay:10.37,2013-01-14 23:15:00,
2013-01-14 18:20:00,63.3,61.2,30.08,SSW,201,0.0,2.0,93,0.00,RA,SCT,0.31,0.0,WeatherDisplay:10.37,2013-01-14 23:20:00,
2013-01-14 18:25:00,63.3,61.2,30.08,SSW,201,0.0,3.0,93,0.00,,SCT,0.31,0.0,WeatherDisplay:10.37,2013-01-14 23:25:00,
2013-01-14 18:30:00,63.3,61.2,30.08,SSW,200,0.0,1.0,93,0.00,,SCT,0.31,0.0,WeatherDisplay:10.37,2013-01-14 23:30:00,
2013-01-14 18:35:00,63.3,61.2,30.08,SSW,201,0.0,2.0,93,0.00,,SCT,0.31,0.0,WeatherDisplay:10.37,2013-01-14 23:35:00,
2013-01-14 18:40:00,63.3,61.2,30.08,SSW,201,0.0,2.0,93,0.00,,SCT,0.31,0.0,WeatherDisplay:10.37,2013-01-14 23:40:00,
2013-01-14 18:45:00,63.2,61.1,30.08,SSW,200,0.0,2.0,93,0.00,,SCT,0.31,0.0,WeatherDisplay:10.37,2013-01-14 23:45:00,
2013-01-14 18:50:00,63.2,61.1,30.08,SSW,200,0.0,1.0,93,0.00,,SCT,0.31,0.0,WeatherDisplay:10.37,2013-01-14 23:50:00,
2013-01-14 18:55:00,63.2,61.1,30.08,SSW,201,0.0,2.0,93,0.00,,SCT,0.31,0.0,WeatherDisplay:10.37,2013-01-14 23:55:00,
2013-01-14 19:00:00,63.2,61.1,30.08,SSW,201,0.0,0.0,93,0.00,,SCT,0.31,0.0,WeatherDisplay:10.37,2013-01-15 00:00:00,
2013-01-14 19:05:00,63.2,61.1,30.08,SSW,201,0.0,1.0,93,0.00,,SCT,0.31,0.0,WeatherDisplay:10.37,2013-01-15 00:05:00,
2013-01-14 19:10:00,63.2,61.1,30.08,SSW,201,0.0,2.0,93,0.00,,SCT,0.31,0.0,WeatherDisplay:10.37,2013-01-15 00:10:00,
2013-01-14 19:15:00,63.1,61.1,30.08,SSW,200,0.0,1.0,93,0.00,,SCT,0.31,0.0,WeatherDisplay:10.37,2013-01-15 00:15:00,
2013-01-14 19:20:00,63.2,61.1,30.08,SSW,201,0.0,1.0,93,0.00,,SCT,0.31,0.0,WeatherDisplay:10.37,2013-01-15 00:20:00,
2013-01-14 19:25:00,63.2,61.1,30.08,SSW,201,0.0,1.0,93,0.00,,SCT,0.31,0.0,WeatherDisplay:10.37,2013-01-15 00:25:00,
2013-01-14 19:30:00,63.1,61.1,30.08,SSW,201,0.0,0.0,93,0.00,,SCT,0.31,0.0,WeatherDisplay:10.37,2013-01-15 00:30:00,
2013-01-14 19:35:00,63.1,61.0,30.08,SSW,201,0.0,2.0,93,0.00,,SCT,0.31,0.0,WeatherDisplay:10.37,2013-01-15 00:35:00,
2013-01-14 19:40:00,63.1,61.0,30.09,SSW,201,1.0,2.0,93,0.00,,SCT,0.31,0.0,WeatherDisplay:10.37,2013-01-15 00:40:00,
2013-01-14 19:45:00,63.1,61.1,30.08,SSW,201,0.0,2.0,93,0.00,,SCT,0.31,0.0,WeatherDisplay:10.37,2013-01-15 00:45:00,
2013-01-14 19:50:00,63.1,61.0,30.08,SSW,201,0.0,1.0,93,0.00,,SCT,0.31,0.0,WeatherDisplay:10.37,2013-01-15 00:50:00,
2013-01-14 19:55:00,63.1,61.1,30.08,SSW,201,0.0,2.0,93,0.00,,SCT,0.31,0.0,WeatherDisplay:10.37,2013-01-15 00:55:00,
2013-01-14 20:00:00,63.1,61.0,30.08,SSW,201,0.0,1.0,93,0.00,,SCT,0.31,0.0,WeatherDisplay:10.37,2013-01-15 01:00:00,
2013-01-14 20:05:00,63.1,61.0,30.08,SSW,201,0.0,1.0,93,0.00,,SCT,0.31,0.0,WeatherDisplay:10.37,2013-01-15 01:05:00,
2013-01-14 20:10:00,63.2,61.1,30.08,SSW,201,0.0,1.0,93,0.00,,SCT,0.31,0.0,WeatherDisplay:10.37,2013-01-15 01:10:00,
2013-01-14 20:15:00,63.2,61.1,30.08,SSW,200,0.0,1.0,93,0.00,,SCT,0.31,0.0,WeatherDisplay:10.37,2013-01-15 01:15:00,
2013-01-14 20:20:00,63.3,61.2,30.08,SSW,201,0.0,1.0,93,0.00,,SCT,0.31,0.0,WeatherDisplay:10.37,2013-01-15 01:20:00,
2013-01-14 20:25:00,63.3,61.2,30.08,SSW,200,1.0,3.0,93,0.00,,SCT,0.31,0.0,WeatherDisplay:10.37,2013-01-15 01:25:00,
2013-01-14 20:30:00,63.4,61.3,30.07,SSW,200,0.0,3.0,93,0.00,,SCT,0.31,0.0,WeatherDisplay:10.37,2013-01-15 01:30:00,
2013-01-14 20:35:00,63.4,61.3,30.07,SSW,200,0.0,2.0,93,0.00,,SCT,0.31,0.0,WeatherDisplay:10.37,2013-01-15 01:35:00,
2013-01-14 20:40:00,63.4,61.3,30.07,SSW,201,0.0,3.0,93,0.00,,SCT,0.31,0.0,WeatherDisplay:10.37,2013-01-15 01:40:00,
2013-01-14 20:45:00,63.4,61.3,30.07,SSW,201,0.0,2.0,93,0.00,,SCT,0.31,0.0,WeatherDisplay:10.37,2013-01-15 01:45:00,
2013-01-14 20:50:00,63.4,61.3,30.07,SSW,200,0.0,2.0,93,0.00,,SCT,0.31,0.0,WeatherDisplay:10.37,2013-01-15 01:50:00,
2013-01-14 20:55:00,63.4,61.3,30.07,SSW,200,0.0,1.0,93,0.00,,SCT,0.31,0.0,WeatherDisplay:10.37,2013-01-15 01:55:00,
2013-01-14 21:00:00,63.4,61.3,30.07,SSW,201,0.0,1.0,93,0.00,,SCT,0.31,0.0,WeatherDisplay:10.37,2013-01-15 02:00:00,
2013-01-14 21:05:00,63.3,61.2,30.07,SSW,201,0.0,0.0,93,0.00,,SCT,0.31,0.0,WeatherDisplay:10.37,2013-01-15 02:05:00,
2013-01-14 21:10:00,63.3,61.2,30.08,SSW,201,0.0,0.0,93,0.00,,SCT,0.31,0.0,WeatherDisplay:10.37,2013-01-15 02:10:00,
2013-01-14 21:15:00,63.3,61.2,30.07,SSW,201,0.0,1.0,93,0.00,,SCT,0.31,0.0,WeatherDisplay:10.37,2013-01-15 02:15:00,
2013-01-14 21:20:00,63.2,61.1,30.06,SSW,201,0.0,1.0,93,0.00,,SCT,0.31,0.0,WeatherDisplay:10.37,2013-01-15 02:20:00,
2013-01-14 21:25:00,63.0,61.0,30.06,SSW,201,1.0,3.0,93,0.00,,SCT,0.31,0.0,WeatherDisplay:10.37,2013-01-15 02:25:00,
2013-01-14 21:30:00,63.1,61.0,30.06,SSW,201,1.0,3.0,93,0.00,,SCT,0.31,0.0,WeatherDisplay:10.37,2013-01-15 02:30:00,
2013-01-14 21:35:00,63.1,61.0,30.06,SSW,200,0.0,2.0,93,0.00,,SCT,0.31,0.0,WeatherDisplay:10.37,2013-01-15 02:35:00,
2013-01-14 21:40:00,63.1,61.0,30.06,SSW,201,0.0,2.0,93,0.00,,SCT,0.31,0.0,WeatherDisplay:10.37,2013-01-15 02:40:00,
2013-01-14 21:45:00,63.1,61.0,30.06,SSW,201,0.0,1.0,93,0.00,,SCT,0.31,0.0,WeatherDisplay:10.37,2013-01-15 02:45:00,
2013-01-14 21:50:00,63.0,60.9,30.06,SSW,201,0.0,1.0,93,0.00,,SCT,0.31,0.0,WeatherDisplay:10.37,2013-01-15 02:50:00,
2013-01-14 21:55:00,62.9,60.8,30.07,SSW,201,1.0,2.0,93,0.00,,SCT,0.31,0.0,WeatherDisplay:10.37,2013-01-15 02:55:00,
2013-01-14 22:00:00,62.8,60.8,30.06,SSW,201,0.0,0.0,93,0.00,,SCT,0.31,0.0,WeatherDisplay:10.37,2013-01-15 03:00:00,
2013-01-14 22:05:00,62.6,60.5,30.06,SSW,201,1.0,2.0,93,0.00,,SCT,0.31,0.0,WeatherDisplay:10.37,2013-01-15 03:05:00,
2013-01-14 22:10:00,62.4,60.3,30.06,SSW,201,0.0,1.0,93,0.00,,SCT,0.31,0.0,WeatherDisplay:10.37,2013-01-15 03:10:00,
2013-01-14 22:15:00,62.3,60.2,30.06,SSW,200,0.0,1.0,93,0.00,,SCT,0.31,0.0,WeatherDisplay:10.37,2013-01-15 03:15:00,
2013-01-14 22:20:00,62.4,60.4,30.06,SSW,201,1.0,3.0,93,0.00,,SCT,0.31,0.0,WeatherDisplay:10.37,2013-01-15 03:20:00,
2013-01-14 22:25:00,62.6,60.5,30.06,SSW,201,1.0,3.0,93,0.00,,SCT,0.31,0.0,WeatherDisplay:10.37,2013-01-15 03:25:00,
2013-01-14 22:30:00,62.6,60.5,30.07,SSW,201,0.0,1.0,93,0.00,,SCT,0.31,0.0,WeatherDisplay:10.37,2013-01-15 03:30:00,
2013-01-14 22:35:00,62.6,60.5,30.06,SSW,201,2.0,4.0,93,0.00,,SCT,0.31,0.0,WeatherDisplay:10.37,2013-01-15 03:35:00,
2013-01-14 22:40:00,62.6,60.5,30.07,SSW,201,0.0,1.0,93,0.00,,SCT,0.31,0.0,WeatherDisplay:10.37,2013-01-15 03:40:00,
2013-01-14 22:45:00,62.5,60.4,30.08,SSW,201,0.0,1.0,93,0.00,,SCT,0.31,0.0,WeatherDisplay:10.37,2013-01-15 03:45:00,
2013-01-14 22:50:00,62.4,60.3,30.09,SSW,201,0.0,3.0,93,0.00,,SCT,0.31,0.0,WeatherDisplay:10.37,2013-01-15 03:50:00,
2013-01-14 22:55:00,62.4,60.3,30.08,SSW,201,2.0,3.0,93,0.00,,SCT,0.31,0.0,WeatherDisplay:10.37,2013-01-15 03:55:00,
2013-01-14 23:00:00,62.4,60.3,30.09,SSW,201,2.0,3.0,93,0.00,,SCT,0.31,0.0,WeatherDisplay:10.37,2013-01-15 04:00:00,
2013-01-14 23:05:00,62.3,60.2,30.09,SSW,201,2.0,4.0,93,0.00,,SCT,0.31,0.0,WeatherDisplay:10.37,2013-01-15 04:05:00,
2013-01-14 23:10:00,62.3,60.2,30.10,SSW,201,1.0,4.0,93,0.00,,SCT,0.31,0.0,WeatherDisplay:10.37,2013-01-15 04:10:00,
2013-01-14 23:15:00,62.4,60.3,30.09,WSW,257,5.0,7.0,93,0.00,,SCT,0.31,0.0,WeatherDisplay:10.37,2013-01-15 04:15:00,
2013-01-14 23:20:00,62.1,60.1,30.09,NNE,23,6.0,12.0,93,0.00,,SCT,0.31,0.0,WeatherDisplay:10.37,2013-01-15 04:20:00,
2013-01-14 23:25:00,61.7,59.7,30.09,NNE,31,3.0,8.0,93,0.00,,SCT,0.31,0.0,WeatherDisplay:10.37,2013-01-15 04:25:00,
2013-01-14 23:30:00,61.3,59.2,30.10,NNE,26,7.0,20.0,93,0.00,,SCT,0.31,0.0,WeatherDisplay:10.37,2013-01-15 04:30:00,
2013-01-14 23:35:00,59.6,57.3,30.10,NNE,13,7.0,20.0,92,0.00,,SCT,0.31,0.0,WeatherDisplay:10.37,2013-01-15 04:35:00,
2013-01-14 23:40:00,58.5,56.2,30.13,North,360,6.0,17.0,92,0.00,,SCT,0.31,0.0,WeatherDisplay:10.37,2013-01-15 04:40:00,
2013-01-14 23:45:00,57.3,54.7,30.11,NNE,18,12.0,17.0,91,0.00,,SCT,0.31,0.0,WeatherDisplay:10.37,2013-01-15 04:45:00,
2013-01-14 23:50:00,56.3,53.7,30.11,NE,37,10.0,18.0,91,0.00,,SCT,0.31,0.0,WeatherDisplay:10.37,2013-01-15 04:50:00,
2013-01-14 23:55:00,55.7,53.1,30.13,NNE,19,6.0,18.0,91,0.00,,SCT,0.31,0.0,WeatherDisplay:10.37,2013-01-15 04:55:00,